This is the latest recevied weather packets stored in our database for station/object KY0TEQ-13. If no packets are shown the sender has not sent any weather packets the latest 10 day(s).
| Time | Temp. | Humidity | Pressure | Rain* | Wind** | Luminosity | Snow |
|---|---|---|---|---|---|---|---|
| 1788172608 | 13.33° C | 80% | 1311.8 hPa | 0 mm | - | 0 W/m² | - |
| 1788172304 | 13.33° C | 78% | 1311.8 hPa | 0 mm | - | 0 W/m² | - |
| 1788172003 | 13.33° C | 79% | 1311.7 hPa | 0 mm | - | 0 W/m² | - |
| 1788171698 | 13.33° C | 79% | 1311.6 hPa | 0 mm | - | 0 W/m² | - |
| 1788171393 | 13.33° C | 80% | 1311.6 hPa | 0 mm | - | 0 W/m² | - |
| 1788171089 | 13.33° C | 79% | 1311.4 hPa | 0 mm | - | 0 W/m² | - |
| 1788170785 | 12.78° C | 81% | 1311.7 hPa | 0 mm | - | 0 W/m² | - |
| 1788170481 | 12.78° C | 81% | 1311.3 hPa | 0 mm | - | 0 W/m² | - |
| 1788170179 | 12.78° C | 80% | 1311.8 hPa | 0 mm | - | 0 W/m² | - |
| 1788169874 | 12.78° C | 80% | 1311.7 hPa | 0 mm | - | 0 W/m² | - |
| 1788169569 | 12.78° C | 81% | 1311.7 hPa | 0 mm | - | 0 W/m² | - |
| 1788169266 | 12.78° C | 80% | 1311.7 hPa | 0 mm | - | 0 W/m² | - |
| 1788168960 | 12.78° C | 80% | 1311.9 hPa | 0 mm | - | 0 W/m² | - |
| 1788168652 | 13.33° C | 79% | 1311.7 hPa | 0 mm | - | 0 W/m² | - |
| 1788168347 | 13.33° C | 79% | 1311.6 hPa | 0 mm | - | 0 W/m² | - |
| 1788168042 | 13.33° C | 80% | 1311.7 hPa | 0 mm | - | 0 W/m² | - |
| 1788167736 | 13.33° C | 80% | 1311.8 hPa | 1.27 mm | - | 0 W/m² | - |
| 1788167432 | 13.33° C | 79% | 1311.6 hPa | 3.05 mm | - | 0 W/m² | - |
| 1788167127 | 13.33° C | 79% | 1311.7 hPa | 3.05 mm | - | 0 W/m² | - |
| 1788166823 | 13.33° C | 78% | 1311.7 hPa | 1.27 mm | - | 0 W/m² | - |
| 1788166518 | 13.89° C | 75% | 1311.6 hPa | 1.78 mm | - | 0 W/m² | - |
| 1788166221 | 13.89° C | 75% | 1311.7 hPa | 3.56 mm | - | 0 W/m² | - |
| 1788165909 | 15° C | 71% | 1311.6 hPa | 1.78 mm | - | 0 W/m² | - |
| 1788165605 | 15.56° C | 65% | 1311.7 hPa | 0 mm | - | 0 W/m² | - |
| 1788165300 | 15.56° C | 64% | 1311.4 hPa | 0 mm | - | 0 W/m² | - |
* Rain latest hour (hover to see other rain measurements)
** Current wind speed in m/s (hover to see current wind gust speed)